Torna al catalogo

STARLINK-5270

AttivoComunicazioniVLEO
NORAD 55299·PAYLOAD·🇺🇸 United States

Lanciato Jan 19, 2023 da Vandenberg Space Force Base

Loading…

Prossimi Passaggi (prossime 24 ore)

TLE

AggiornatoSource: CelesTrak SupGP

Epoca: Sep 14, 2026, 20:58 UTC

1 55299C 23010AG  26257.87409722  .00066053  00000+0  55361-2 0  2575
2 55299  69.9993 267.3114 0003831 265.6815 347.2350 14.98291581    12

Traccia STARLINK-5270 in tempo reale con AllMySat

Download on the App Store